• In Belgien
  • Länderverzeichnis
  • Für 7 Tage
  • Wassertemperatur
  • Satellitenkarten
  • Wetterkarte
  • Widgets
  • user-avatar
    Anmelden

    Stündliche Wetter Oran

    Heute, 24 November, Freitag

    Zeit Temperatur Niederschläge Wind Luftdruck Luftfeuchtigkeit
    00:00 +15°C° 0 mm 2 m/S 755 mmHg 31%
    01:00 +15°C° 0 mm 2 m/S 755 mmHg 29%
    02:00 +15°C° 0 mm 2 m/S 755 mmHg 28%
    03:00 +15°C° 0 mm 2 m/S 755 mmHg 27%
    04:00 +15°C° 0 mm 2 m/S 755 mmHg 26%
    05:00 +14°C° 0 mm 2 m/S 755 mmHg 26%
    06:00 +14°C° 0 mm 2 m/S 755 mmHg 24%
    07:00 +16°C° 0 mm 2 m/S 755 mmHg 21%
    08:00 +18°C° 0 mm 2 m/S 755 mmHg 19%
    09:00 +20°C° 0 mm 2 m/S 756 mmHg 16%
    10:00 +23°C° 0 mm 1 m/S 756 mmHg 14%
    11:00 +24°C° 0 mm 1 m/S 755 mmHg 12%
    12:00 +25°C° 0 mm 1 m/S 755 mmHg 11%
    13:00 +25°C° 0 mm 1 m/S 755 mmHg 11%
    14:00 +26°C° 0 mm 1 m/S 755 mmHg 11%
    15:00 +26°C° 0 mm 1 m/S 754 mmHg 10%
    16:00 +24°C° 0 mm 1 m/S 754 mmHg 14%
    17:00 +22°C° 0 mm 1 m/S 754 mmHg 17%
    18:00 +19°C° 0 mm 1 m/S 754 mmHg 20%
    19:00 +19°C° 0 mm 1 m/S 755 mmHg 20%
    20:00 +18°C° 0 mm 1 m/S 755 mmHg 21%
    21:00 +18°C° 0 mm 1 m/S 755 mmHg 21%
    22:00 +18°C° 0 mm 1 m/S 755 mmHg 20%
    23:00 +18°C° 0 mm 1 m/S 755 mmHg 20%

    Morgen, 25 November, Samstag

    Zeit Temperatur Niederschläge Wind Luftdruck Luftfeuchtigkeit
    00:00 +17°C° 0 mm 2 m/S 755 mmHg 19%
    01:00 +16°C° 0 mm 1 m/S 755 mmHg 19%
    02:00 +16°C° 0 mm 1 m/S 754 mmHg 19%
    03:00 +16°C° 0 mm 1 m/S 754 mmHg 20%
    04:00 +16°C° 0 mm 1 m/S 754 mmHg 20%
    05:00 +15°C° 0 mm 2 m/S 754 mmHg 20%
    06:00 +15°C° 0 mm 2 m/S 754 mmHg 20%
    07:00 +17°C° 0 mm 2 m/S 755 mmHg 18%
    08:00 +19°C° 0 mm 2 m/S 755 mmHg 17%
    09:00 +21°C° 0 mm 2 m/S 755 mmHg 15%
    10:00 +24°C° 0 mm 2 m/S 755 mmHg 14%
    11:00 +25°C° 0 mm 2 m/S 755 mmHg 13%
    12:00 +26°C° 0 mm 2 m/S 755 mmHg 12%
    13:00 +26°C° 0 mm 2 m/S 754 mmHg 13%
    14:00 +26°C° 0 mm 2 m/S 754 mmHg 13%
    15:00 +27°C° 0 mm 2 m/S 754 mmHg 14%
    16:00 +24°C° 0 mm 2 m/S 754 mmHg 17%
    17:00 +22°C° 0 mm 1 m/S 754 mmHg 21%
    18:00 +20°C° 0 mm 1 m/S 754 mmHg 24%
    19:00 +20°C° 0 mm 1 m/S 755 mmHg 24%
    20:00 +17°C° 0 mm 0 m/S 755 mmHg 25%
    21:00 +17°C° 0 mm 0 m/S 755 mmHg 25%
    22:00 +16°C° 0 mm 0 m/S 755 mmHg 25%
    23:00 +16°C° 0 mm 0 m/S 755 mmHg 25%

    übermorgen, 26 November, Sonntag

    Zeit Temperatur Niederschläge Wind Luftdruck Luftfeuchtigkeit
    00:00 +16°C° 0 mm 0 m/S 755 mmHg 25%
    01:00 +18°C° 0 mm 1 m/S 755 mmHg 25%
    02:00 +18°C° 0 mm 1 m/S 755 mmHg 26%
    03:00 +18°C° 0 mm 1 m/S 755 mmHg 26%
    04:00 +16°C° 0 mm 1 m/S 756 mmHg 27%
    05:00 +16°C° 0 mm 1 m/S 756 mmHg 29%
    06:00 +15°C° 0 mm 1 m/S 756 mmHg 30%
    07:00 +17°C° 0 mm 2 m/S 757 mmHg 27%
    08:00 +19°C° 0 mm 2 m/S 757 mmHg 23%
    09:00 +21°C° 0 mm 3 m/S 758 mmHg 19%
    10:00 +22°C° 0 mm 3 m/S 758 mmHg 21%
    11:00 +23°C° 0 mm 4 m/S 758 mmHg 23%
    12:00 +23°C° 0 mm 4 m/S 758 mmHg 24%
    13:00 +23°C° 0 mm 5 m/S 758 mmHg 28%
    14:00 +23°C° 0 mm 5 m/S 758 mmHg 32%
    15:00 +23°C° 0 mm 6 m/S 758 mmHg 36%
    16:00 +21°C° 0 mm 6 m/S 758 mmHg 47%
    17:00 +20°C° 0 mm 6 m/S 758 mmHg 58%
    18:00 +17°C° 0 mm 6 m/S 759 mmHg 69%
    19:00 +17°C° 0 mm 5 m/S 759 mmHg 74%
    20:00 +16°C° 0 mm 5 m/S 760 mmHg 78%
    21:00 +16°C° 0 mm 5 m/S 760 mmHg 83%
    22:00 +15°C° 0 mm 4 m/S 760 mmHg 84%
    23:00 +15°C° 0 mm 4 m/S 760 mmHg 85%

    27 November, Montag

    Zeit Temperatur Niederschläge Wind Luftdruck Luftfeuchtigkeit
    00:00 +15°C° 0 mm 4 m/S 760 mmHg 85%
    01:00 +15°C° 0 mm 4 m/S 759 mmHg 85%
    02:00 +14°C° 0 mm 4 m/S 759 mmHg 85%
    03:00 +14°C° 0 mm 4 m/S 759 mmHg 85%
    04:00 +14°C° 0 mm 4 m/S 759 mmHg 85%
    05:00 +14°C° 0 mm 4 m/S 759 mmHg 85%
    06:00 +14°C° 0 mm 4 m/S 759 mmHg 85%
    07:00 +15°C° 0 mm 4 m/S 759 mmHg 79%
    08:00 +17°C° 0 mm 4 m/S 759 mmHg 73%
    09:00 +18°C° 0 mm 4 m/S 759 mmHg 67%
    10:00 +19°C° 0 mm 4 m/S 759 mmHg 61%
    11:00 +20°C° 0 mm 4 m/S 759 mmHg 54%
    12:00 +21°C° 0 mm 3 m/S 758 mmHg 48%
    13:00 +21°C° 0 mm 4 m/S 758 mmHg 48%
    14:00 +21°C° 0 mm 4 m/S 758 mmHg 47%
    15:00 +22°C° 0 mm 5 m/S 757 mmHg 47%
    16:00 +20°C° 0 mm 5 m/S 757 mmHg 52%
    17:00 +19°C° 0 mm 5 m/S 757 mmHg 57%
    18:00 +18°C° 0 mm 4 m/S 757 mmHg 62%
    19:00 +18°C° 0 mm 4 m/S 757 mmHg 65%
    20:00 +17°C° 0 mm 3 m/S 758 mmHg 68%
    21:00 +17°C° 0 mm 3 m/S 758 mmHg 70%
    22:00 +17°C° 0 mm 2 m/S 757 mmHg 70%
    23:00 +17°C° 0 mm 2 m/S 757 mmHg 70%

    28 November, Dienstag

    Zeit Temperatur Niederschläge Wind Luftdruck Luftfeuchtigkeit
    00:00 +18°C° 0 mm 1 m/S 757 mmHg 70%
    01:00 +17°C° 0 mm 2 m/S 756 mmHg 70%
    02:00 +17°C° 0 mm 2 m/S 756 mmHg 71%
    03:00 +17°C° 0 mm 2 m/S 756 mmHg 72%
    04:00 +16°C° 0 mm 2 m/S 756 mmHg 74%
    05:00 +16°C° 0 mm 1 m/S 755 mmHg 76%
    06:00 +15°C° 0 mm 1 m/S 755 mmHg 78%
    07:00 +16°C° 0 mm 1 m/S 755 mmHg 71%
    08:00 +18°C° 0 mm 1 m/S 755 mmHg 65%
    09:00 +20°C° 0 mm 1 m/S 755 mmHg 59%
    10:00 +21°C° 0 mm 1 m/S 755 mmHg 54%
    11:00 +22°C° 0 mm 1 m/S 754 mmHg 49%
    12:00 +23°C° 0 mm 1 m/S 754 mmHg 44%
    13:00 +23°C° 0 mm 1 m/S 753 mmHg 43%
    14:00 +23°C° 0 mm 1 m/S 752 mmHg 42%
    15:00 +24°C° 0 mm 1 m/S 752 mmHg 41%
    16:00 +23°C° 0 mm 1 m/S 751 mmHg 45%
    17:00 +21°C° 0 mm 1 m/S 751 mmHg 50%
    18:00 +20°C° 0 mm 1 m/S 751 mmHg 54%
    19:00 +20°C° 0 mm 1 m/S 751 mmHg 54%
    20:00 +20°C° 0 mm 1 m/S 751 mmHg 53%
    21:00 +19°C° 0 mm 1 m/S 751 mmHg 52%
    22:00 +19°C° 0 mm 1 m/S 750 mmHg 51%
    23:00 +19°C° 0 mm 1 m/S 750 mmHg 50%

    29 November, Mittwoch

    Zeit Temperatur Niederschläge Wind Luftdruck Luftfeuchtigkeit
    00:00 +19°C° 0 mm 1 m/S 749 mmHg 50%
    01:00 +18°C° 0 mm 2 m/S 749 mmHg 49%
    02:00 +18°C° 0 mm 2 m/S 748 mmHg 49%
    03:00 +18°C° 0 mm 2 m/S 748 mmHg 49%
    04:00 +18°C° 0 mm 3 m/S 747 mmHg 47%
    05:00 +18°C° 0 mm 3 m/S 747 mmHg 46%
    06:00 +18°C° 0 mm 3 m/S 747 mmHg 44%
    07:00 +20°C° 0 mm 4 m/S 747 mmHg 40%
    08:00 +21°C° 0 mm 5 m/S 747 mmHg 35%
    09:00 +23°C° 0 mm 5 m/S 747 mmHg 31%
    10:00 +24°C° 0 mm 7 m/S 746 mmHg 31%
    11:00 +24°C° 0 mm 9 m/S 746 mmHg 30%
    12:00 +26°C° 0 mm 11 m/S 746 mmHg 30%
    13:00 +24°C° 0 mm 10 m/S 745 mmHg 33%
    14:00 +24°C° 0 mm 10 m/S 745 mmHg 35%
    15:00 +24°C° 0 mm 9 m/S 745 mmHg 38%
    16:00 +22°C° 0,1 mm 9 m/S 745 mmHg 48%
    17:00 +21°C° 0,1 mm 8 m/S 745 mmHg 58%
    18:00 +20°C° 0,1 mm 7 m/S 745 mmHg 68%
    19:00 +18°C° 0,5 mm 7 m/S 746 mmHg 70%
    20:00 +18°C° 0,5 mm 7 m/S 746 mmHg 72%
    21:00 +18°C° 0,5 mm 7 m/S 747 mmHg 75%
    22:00 +17°C° 0,9 mm 7 m/S 747 mmHg 77%
    23:00 +17°C° 0,9 mm 7 m/S 747 mmHg 79%
    Mehr zeigen